Regional Weather Roundup
Issued by NWS

Home | Current Version | Previous Version | Text Only | Print | Product List | Glossary Off
Versions: 1 2 3 4 5 6 7 8 9 10 11 12 13 14 15 16 17 18 19 20 21 22 23 24 25 26 27 28 29 30 31 32 33 34 35 36 37 38 39 40 41 42 43 44 45 46 47 48 49 50

824
ASUS45 KTFX 232010
RWRMT
MONTANA REGIONAL WEATHER ROUNDUP
NATIONAL WEATHER SERVICE GREAT FALLS MT
100 PM MST MON JAN 23 2017

NOTE: "FAIR" INDICATES FEW OR NO CLOUDS BELOW 12000 FEET WITH NO
SIGNIFICANT WEATHER AND/OR OBSTRUCTIONS TO VISIBILITY.

MTZ001>007-043-232100-
WEST OF THE DIVIDE

CITY           SKY/WX    TMP DP  RH WIND       PRES   REMARKS
KALISPELL      CLOUDY    33  22  63 N7        29.72S WCI  27
MISSOULA       CLOUDY    28  27  96 S3        29.70F
BUTTE          CLOUDY    19  13  77 CALM      29.60F
MULLAN PASS    SNOW      26  23  88 CALM      29.60F VSB 1/2
ANACONDA         N/A     27  16  63 NW5       29.63F
DEER LODGE       N/A     27  18  69 NW7       29.66F WCI  19
EUREKA           N/A     34  25  69 CALM      29.76S
HAMILTON         N/A     25  18  74 CALM      29.67
PLAINS           N/A     30  26  85 CALM      29.75F
RONAN            N/A     27  25  92 CALM      29.78S
$$

MTZ008-052>055-232100-
SOUTHWEST MONTANA

CITY           SKY/WX    TMP DP  RH WIND       PRES   REMARKS
BOZEMAN        CLOUDY    22  22 100 CALM      29.66F FOG
DILLON         CLOUDY   N/A N/A N/A E6        29.59F
W YELLOWSTONE  CLOUDY    25  16  68 NE8       29.49F WCI  16
ENNIS          CLOUDY    23  19  86 SE3       29.61F
TWIN BRIDGES     N/A     18  12  77 NW5       29.64F
$$

MTZ009-010-012-014-046-048-049-054-232100-
EAST SLOPES AND CENTRAL MONTANA

CITY           SKY/WX    TMP DP  RH WIND       PRES   REMARKS
CUT BANK       CLOUDY    20  17  88 N16       29.75S WCI   6
GREAT FALLS    CLOUDY    21  18  88 NW7       29.75F WCI  12
MALMSTROM AFB  FLURRIES  23  21  94 CALM      29.77S
HELENA         CLOUDY    27  19  72 NW8       29.71F WCI  19
BOWMANS CRNR   FLURRIES  19  18  96 NE7       29.70F WCI  10
CHOTEAU          N/A     23  21  93 N9        29.75F WCI  13
CONRAD           N/A     19  18  96 NW8       29.80F WCI   9
POWER          PTSUNNY   18  17  94 NW7       29.74S WCI   9
RAYNESFORD     FLURRIES  22  21  97 NW7       29.73S WCI  13
ULM            FLURRIES  22  20  93 MISG      29.76F
$$

MTZ011-013-016-021-045-047-050-051-232100-
NORTH CENTRAL MONTANA

CITY           SKY/WX    TMP DP  RH WIND       PRES   REMARKS
HAVRE          CLOUDY    23  19  85 W8        29.80F WCI  14
LEWISTOWN      CLOUDY    22  20  92 NW8       29.70S WCI  12
CHINOOK          N/A     23  19  86 N8        29.81S WCI  14
DENTON         FLURRIES  22  21  96 NW7G17    29.70S WCI  14
FORT BENTON      N/A     25  19  80 MISG      29.80F
GEYSER         PTSUNNY   23  22  94 W13       29.70F WCI  11
GRASS RANGE    CLOUDY    27  21  79 NW9       29.66F WCI  18
JUDITH GAP     CLOUDY    22  21  94 N23       29.64F WCI   6
ROY            CLOUDY    25  25  99 MISG      29.70S
STANFORD       FLURRIES  23  23  99 N13       29.68F WCI  12
$$

MTZ017>020-022>027-061-062-232100-
NORTHEAST MONTANA

CITY           SKY/WX    TMP DP  RH WIND       PRES   REMARKS
GLASGOW        LGT SNOW  25  21  85 N9        29.76S VSB 1   WCI  15
JORDAN           N/A     26  23  88 CALM      29.72F
SIDNEY         CLOUDY    26  23  88 NE7       29.77S WCI  18
WOLF POINT     LGT SNOW  27  21  78 NE8       29.78S WCI  19
PLENTYWOOD       N/A     21  18  86 NW14      29.74F WCI   8
POPLAR           N/A     25  21  86 N9        29.78S WCI  15
SCOBEY           N/A     22  13  68 W13       29.75S WCI  10
$$

MTZ028>42-056>058-232100-
SOUTHCENTRAL AND SOUTHEAST MONTANA

CITY           SKY/WX    TMP DP  RH WIND       PRES   REMARKS
BAKER          FOG       20  18  92 SE9       29.70R VSB 1   WCI   9
BILLINGS       CLOUDY    22  19  89 CALM      29.68F
LIVINGSTON     CLOUDY    27  19  72 NW6       29.62F WCI  20
MILES CITY     CLOUDY    22  18  85 NE10      29.72F WCI  11
BIG TIMBER     PTSUNNY   28  21  74 N8        29.66F WCI  20
EKALAKA          N/A     17  12  80 NW2       29.65F VSB 0
FORSYTH          N/A     23  23 100 CALM      29.71F
HARLOWTON        N/A     27  20  75 N24G30    29.63F WCI  12
LAUREL           N/A     22  17  81 CALM      29.69F
$$

REGIONAL REPORTS...DAKOTAS

CITY           SKY/WX    TMP DP  RH WIND       PRES   REMARKS
WILLISTON      CLOUDY    25  20  81 N7        29.77F WCI  17
MINOT          CLOUDY    26  20  77 NW10      29.75F WCI  16
DICKINSON      CLOUDY    24  20  84 E5        29.70F
BEACH          CLOUDY    23  23 100 E7        29.74S WCI  15
CROSBY         CLOUDY    19  18  93 NW15      29.78F WCI   5
TIOGA          PTSUNNY   21  21 100 NW16      29.75S WCI   7
WATFORD CITY   CLOUDY    23  21  93 NE3       29.76F
BISMARCK       CLOUDY    32  23  69 SW7       29.78S WCI  26
GRAND FORKS    CLOUDY    32  23  69 W9        29.78S WCI  24
FARGO          CLOUDY    35  26  69 NW7       29.79F WCI  29
BUFFALO SD       N/A     26  21  81 E7        29.60F WCI  18
RAPID CITY     CLOUDY    24  21  88 N15       29.61F WCI  11
$$

REGIONAL REPORTS...WYOMING/IDAHO/WASHINGTON

CITY           SKY/WX    TMP DP  RH WIND       PRES   REMARKS
GILLETTE       SUNNY     34  24  67 N10       29.58F WCI  26
SHERIDAN       SUNNY     30  21  69 W12       29.62F WCI  20
BUFFALO WY     SUNNY     30  19  63 N13       29.59F WCI  20
CODY           CLOUDY    24  18  77 NE9       29.59F WCI  14
YELLOWSTONE LA   N/A     14  10  84 CALM      29.49F
IDAHO FALLS    LGT SNOW  30  29  96 NE12      29.45F VSB 3/4 WCI  20
SALMON         CLOUDY    16  14  93 CALM      29.63F
BOISE          CLOUDY    30  27  88 NW14      29.62F WCI  19
SPOKANE        FOG       32  29  88 NE7       29.74S VSB 1/2 WCI  26
$$

REGIONAL REPORTS...ALBERTA

CITY           SKY/WX    TMP DP  RH WIND       PRES   REMARKS
EDMONTON       CLOUDY    14   7  73 N2        29.87F
CALGARY        CLOUDY    25  23  93 S3        29.75S FOG
LETHBRIDGE     CLOUDY    25  19  80 NW3       29.78F
MEDICINE HAT   CLOUDY    21  19  93 W12       29.83S WCI   9
WATERTON GATE    N/A     30  21  69 NW1         N/A
CARDSTON         N/A     36  19  51 S3          N/A
MILK RIVER       N/A     23  21  93 NW3         N/A
$$

REGIONAL REPORTS...SASKATCHEWAN

CITY           SKY/WX    TMP DP  RH WIND       PRES   REMARKS
SWIFT CURRENT  FLURRIES  16  14  93 NW14      29.74S WCI   1
REGINA         CLOUDY    19  16  86 NW15      29.74F WCI   5
SASKATOON      LGT SNOW  14  10  85 N10       29.82F DRFTSNOWWCI   1
CYPRESS HILLS    N/A     14  10  85 NW1         N/A
VAL MARIE        N/A     21  18  86 N8          N/A  WCI  12
ROCKGLEN         N/A     18  16  93 NW9         N/A  WCI   6
ASSINIBOIA       N/A     14  12  92 CALM        N/A
$$




USA.gov is the U.S. government's official web portal to all federal, state and local government web resources and services.